DLH187 LEPA-EDDK

Flight info

Callsign DLH187
Flight time 1h 54m
Altitude 36000
Route MEROS N853 LUMAS DCT MAXIR DCT LUSOL DCT BODRU DCT OKTET DCT IRMAR DCT KINES DCT VANAS DCT MOBLO DCT UBIMA DCT GILIR DCT PENDU DCT IXILU DCT EPL DCT JARNY DCT ROUSY/N0445F370 M624 DIK N853 ARCKY T853 IBESA T860 ERUKI ERUKI1B
Aircraft A320/M-SDE3FGHIRWY/LB1

Departure

Time 2026-05-07 16:18
Airport Palma de Mallorca Airport (LEPA)

Arrival

Time 2026-05-07 18:13
Airport Cologne Bonn Airport (EDDK)
Time Latitude Longitude Altitude Speed Heading
2026-05-07 15:04 39.55036 2.73544 26 ft 0 kts 165°
2026-05-07 16:08 39.55052 2.73538 31 ft 4 kts 156°
2026-05-07 16:09 39.55074 2.73520 30 ft 4 kts 126°
2026-05-07 16:09 39.55082 2.73491 28 ft 4 kts 69°
2026-05-07 16:09 39.55080 2.73483 30 ft 0 kts 59°
2026-05-07 16:11 39.55081 2.73487 30 ft 1 kts 59°
2026-05-07 16:12 39.55090 2.73507 30 ft 8 kts 61°
2026-05-07 16:12 39.55117 2.73567 27 ft 7 kts 58°
2026-05-07 16:12 39.55153 2.73640 25 ft 11 kts 60°
2026-05-07 16:12 39.55177 2.73724 24 ft 8 kts 95°
2026-05-07 16:13 39.55168 2.73787 25 ft 8 kts 76°
2026-05-07 16:13 39.55167 2.73859 27 ft 8 kts 140°
2026-05-07 16:13 39.55135 2.73884 27 ft 5 kts 149°
2026-05-07 16:13 39.55082 2.73930 26 ft 11 kts 149°
2026-05-07 16:14 39.55023 2.73975 27 ft 11 kts 151°
2026-05-07 16:14 39.54941 2.74035 28 ft 13 kts 149°
2026-05-07 16:14 39.54870 2.74091 29 ft 11 kts 148°
2026-05-07 16:14 39.54810 2.74129 29 ft 10 kts 172°
2026-05-07 16:15 39.54758 2.74060 29 ft 10 kts 240°
2026-05-07 16:15 39.54723 2.73990 30 ft 11 kts 236°
2026-05-07 16:15 39.54666 2.73870 31 ft 20 kts 240°
2026-05-07 16:15 39.54590 2.73718 31 ft 18 kts 236°
2026-05-07 16:16 39.54529 2.73584 32 ft 22 kts 240°
2026-05-07 16:16 39.54438 2.73389 34 ft 24 kts 238°
2026-05-07 16:16 39.54355 2.73219 35 ft 22 kts 237°
2026-05-07 16:16 39.54267 2.73031 36 ft 27 kts 238°
2026-05-07 16:17 39.54175 2.72909 36 ft 14 kts 159°
2026-05-07 16:17 39.54158 2.73035 37 ft 17 kts 88°
2026-05-07 16:17 39.54144 2.73195 34 ft 14 kts 103°
2026-05-07 16:17 39.54189 2.73301 35 ft 37 kts 60°
2026-05-07 16:18 39.54442 2.73849 30 ft 102 kts 59°
2026-05-07 16:18 39.54910 2.74842 25 ft 151 kts 59°
2026-05-07 16:18 39.55533 2.76089 253 ft 172 kts 58°
2026-05-07 16:18 39.56213 2.77351 922 ft 170 kts 59°
2026-05-07 16:19 39.56823 2.78678 1453 ft 177 kts 61°
2026-05-07 16:19 39.57476 2.80183 1742 ft 201 kts 61°
2026-05-07 16:19 39.58167 2.81771 2383 ft 206 kts 61°
2026-05-07 16:19 39.58891 2.83420 3201 ft 210 kts 61°
2026-05-07 16:20 39.59631 2.85085 3812 ft 216 kts 61°
2026-05-07 16:20 39.60386 2.86768 3964 ft 216 kts 61°
2026-05-07 16:20 39.61147 2.88449 4001 ft 216 kts 61°
2026-05-07 16:20 39.61909 2.90131 4003 ft 215 kts 61°
2026-05-07 16:21 39.62686 2.91875 4069 ft 241 kts 62°
2026-05-07 16:21 39.63542 2.93852 4755 ft 256 kts 63°
2026-05-07 16:21 39.64422 2.95890 5615 ft 262 kts 62°
2026-05-07 16:21 39.65322 2.97978 6487 ft 268 kts 62°
2026-05-07 16:22 39.66240 3.00101 7411 ft 272 kts 62°
2026-05-07 16:22 39.67175 3.02263 8310 ft 277 kts 62°
2026-05-07 16:22 39.68133 3.04475 9127 ft 284 kts 61°
2026-05-07 16:22 39.69112 3.06735 9946 ft 290 kts 62°
2026-05-07 16:23 39.70123 3.09078 10505 ft 310 kts 62°
2026-05-07 16:23 39.71219 3.11626 10934 ft 335 kts 61°
2026-05-07 16:23 39.72606 3.14145 11592 ft 351 kts 52°
2026-05-07 16:23 39.74184 3.16608 12444 ft 358 kts 51°
2026-05-07 16:24 39.75793 3.19106 13331 ft 363 kts 51°
2026-05-07 16:24 39.77423 3.21636 14098 ft 368 kts 51°
2026-05-07 16:24 39.79082 3.24212 14800 ft 373 kts 51°
2026-05-07 16:24 39.80757 3.26815 15418 ft 378 kts 51°
2026-05-07 16:25 39.82456 3.29458 16001 ft 383 kts 51°
2026-05-07 16:25 39.83589 3.31223 16383 ft 386 kts 51°
2026-05-07 16:25 39.85312 3.33913 16954 ft 390 kts 51°
2026-05-07 16:25 39.87064 3.36653 17520 ft 395 kts 51°
2026-05-07 16:26 39.88831 3.39417 18074 ft 399 kts 51°
2026-05-07 16:26 39.90612 3.42207 18592 ft 404 kts 51°
2026-05-07 16:26 39.92421 3.45041 19070 ft 407 kts 51°
2026-05-07 16:26 39.94233 3.47886 19547 ft 411 kts 51°
2026-05-07 16:27 39.96070 3.50777 20023 ft 415 kts 51°
2026-05-07 16:27 39.97918 3.53687 20480 ft 419 kts 51°
2026-05-07 16:27 39.99788 3.56629 20936 ft 423 kts 51°
2026-05-07 16:27 40.01679 3.59602 21407 ft 427 kts 51°
2026-05-07 16:28 40.03588 3.62604 21842 ft 431 kts 51°
2026-05-07 16:28 40.05513 3.65632 22281 ft 436 kts 51°
2026-05-07 16:28 40.07455 3.68691 22704 ft 440 kts 51°
2026-05-07 16:28 40.09412 3.71778 23131 ft 444 kts 51°
2026-05-07 16:29 40.11390 3.74903 23548 ft 448 kts 51°
2026-05-07 16:29 40.13387 3.78071 23897 ft 452 kts 51°
2026-05-07 16:29 40.15388 3.81254 24259 ft 456 kts 51°
2026-05-07 16:29 40.17405 3.84463 24620 ft 459 kts 51°
2026-05-07 16:30 40.19442 3.87701 24981 ft 462 kts 51°
2026-05-07 16:30 40.21494 3.90962 25329 ft 465 kts 51°
2026-05-07 16:30 40.23558 3.94243 25668 ft 469 kts 51°
2026-05-07 16:30 40.25638 3.97553 26017 ft 472 kts 51°
2026-05-07 16:31 40.27731 4.00888 26354 ft 475 kts 51°
2026-05-07 16:31 40.29831 4.04245 26700 ft 478 kts 51°
2026-05-07 16:31 40.31945 4.07625 27029 ft 481 kts 51°
2026-05-07 16:31 40.34076 4.11034 27238 ft 488 kts 51°
2026-05-07 16:32 40.36247 4.14514 27372 ft 495 kts 51°
2026-05-07 16:32 40.38438 4.18031 27508 ft 502 kts 51°
2026-05-07 16:32 40.40657 4.21596 27644 ft 508 kts 51°
2026-05-07 16:32 40.42909 4.25219 27776 ft 514 kts 51°
2026-05-07 16:33 40.45190 4.28867 27911 ft 520 kts 49°
2026-05-07 16:33 40.47766 4.32207 28052 ft 523 kts 38°
2026-05-07 16:33 40.50739 4.34973 28252 ft 523 kts 28°
2026-05-07 16:33 40.54000 4.37060 28562 ft 520 kts 18°
2026-05-07 16:34 40.57446 4.38426 28909 ft 515 kts
2026-05-07 16:34 40.60966 4.39276 29257 ft 514 kts
2026-05-07 16:34 40.64479 4.40106 29630 ft 514 kts
2026-05-07 16:34 40.67995 4.40944 29991 ft 514 kts
2026-05-07 16:35 40.71514 4.41786 30303 ft 513 kts
2026-05-07 16:35 40.75024 4.42628 30614 ft 513 kts
2026-05-07 16:35 40.78536 4.43471 30932 ft 513 kts
2026-05-07 16:35 40.82048 4.44319 31247 ft 512 kts
2026-05-07 16:36 40.85553 4.45168 31565 ft 512 kts
2026-05-07 16:36 40.89016 4.46318 31855 ft 518 kts 17°
2026-05-07 16:36 40.92339 4.48223 32143 ft 521 kts 21°
2026-05-07 16:36 40.95635 4.50200 32442 ft 521 kts 21°
2026-05-07 16:37 40.98929 4.52200 32740 ft 521 kts 21°
2026-05-07 16:37 41.02231 4.54218 33037 ft 521 kts 21°
2026-05-07 16:37 41.05516 4.56227 33278 ft 522 kts 21°
2026-05-07 16:37 41.08812 4.58239 33657 ft 520 kts 21°
2026-05-07 16:38 41.12145 4.60271 33915 ft 521 kts 20°
2026-05-07 16:38 41.15446 4.62279 34108 ft 522 kts 20°
2026-05-07 16:38 41.18747 4.64281 34308 ft 524 kts 20°
2026-05-07 16:38 41.22069 4.66293 34504 ft 525 kts 20°
2026-05-07 16:39 41.25398 4.68313 34688 ft 526 kts 20°
2026-05-07 16:39 41.28726 4.70341 34863 ft 528 kts 21°
2026-05-07 16:39 41.32029 4.72364 35050 ft 528 kts 21°
2026-05-07 16:39 41.35407 4.74439 35254 ft 528 kts 21°
2026-05-07 16:40 41.38743 4.76492 35473 ft 528 kts 21°
2026-05-07 16:40 41.42078 4.78544 35691 ft 528 kts 21°
2026-05-07 16:40 41.45405 4.80593 35906 ft 527 kts 21°
2026-05-07 16:40 41.48733 4.82640 36122 ft 527 kts 21°
2026-05-07 16:41 41.52058 4.84684 36310 ft 526 kts 21°
2026-05-07 16:41 41.55389 4.86733 36539 ft 525 kts 21°
2026-05-07 16:41 41.58685 4.88764 36884 ft 519 kts 21°
2026-05-07 16:42 41.65191 4.92785 36966 ft 513 kts 21°
2026-05-07 16:42 41.71663 4.96789 36970 ft 512 kts 21°
2026-05-07 16:43 41.78170 5.00614 36975 ft 510 kts 18°
2026-05-07 16:43 41.84764 5.04107 36970 ft 509 kts 17°
2026-05-07 16:44 41.91381 5.07535 36973 ft 510 kts 17°
2026-05-07 16:44 41.97960 5.10944 36982 ft 510 kts 17°
2026-05-07 16:45 42.04578 5.14403 36982 ft 510 kts 17°
2026-05-07 16:45 42.11189 5.17884 36988 ft 510 kts 17°
2026-05-07 16:46 42.17804 5.21383 36986 ft 510 kts 17°
2026-05-07 16:46 42.24401 5.24884 36988 ft 510 kts 17°
2026-05-07 16:47 42.31005 5.28384 36984 ft 510 kts 17°
2026-05-07 16:47 42.37611 5.31880 36987 ft 509 kts 17°
2026-05-07 16:48 42.44256 5.35405 36984 ft 509 kts 17°
2026-05-07 16:48 42.50846 5.38919 36979 ft 509 kts 17°
2026-05-07 16:49 42.57437 5.42446 36985 ft 508 kts 17°
2026-05-07 16:49 42.64015 5.45966 36985 ft 508 kts 17°
2026-05-07 16:50 42.70576 5.49486 36986 ft 508 kts 17°
2026-05-07 16:50 42.77147 5.53025 36988 ft 507 kts 17°
2026-05-07 16:51 42.83705 5.56564 36989 ft 507 kts 17°
2026-05-07 16:51 42.90253 5.60102 36990 ft 506 kts 17°
2026-05-07 16:52 42.96811 5.63649 36986 ft 506 kts 17°
2026-05-07 16:52 43.03350 5.67196 36986 ft 506 kts 17°
2026-05-07 16:53 43.09886 5.70748 36981 ft 506 kts 18°
2026-05-07 16:53 43.16427 5.74312 36979 ft 506 kts 18°
2026-05-07 16:54 43.22957 5.77889 36984 ft 506 kts 18°
2026-05-07 16:54 43.29507 5.81481 36974 ft 506 kts 18°
2026-05-07 16:55 43.36043 5.85071 36963 ft 506 kts 18°
2026-05-07 16:55 43.42577 5.88671 36945 ft 506 kts 18°
2026-05-07 16:56 43.49117 5.92291 36941 ft 506 kts 18°
2026-05-07 16:56 43.58928 5.97720 36940 ft 506 kts 18°
2026-05-07 16:57 43.65465 6.01337 36941 ft 506 kts 17°
2026-05-07 16:57 43.72089 6.04513 36941 ft 503 kts 13°
2026-05-07 16:58 43.78807 6.07224 36943 ft 503 kts 12°
2026-05-07 16:58 43.85525 6.09947 36946 ft 503 kts 13°
2026-05-07 16:59 43.92230 6.12820 36946 ft 504 kts 13°
2026-05-07 16:59 43.98921 6.15770 36938 ft 504 kts 14°
2026-05-07 17:00 44.05611 6.18716 36949 ft 505 kts 13°
2026-05-07 17:00 44.12311 6.21641 36944 ft 505 kts 13°
2026-05-07 17:01 44.19012 6.24549 36946 ft 504 kts 14°
2026-05-07 17:01 44.25709 6.27473 36949 ft 505 kts 14°
2026-05-07 17:02 44.32417 6.30417 36960 ft 505 kts 14°
2026-05-07 17:02 44.38023 6.32892 36952 ft 504 kts 14°
2026-05-07 17:03 44.44724 6.35851 36961 ft 505 kts 14°
2026-05-07 17:03 44.51425 6.38813 36966 ft 505 kts 14°
2026-05-07 17:04 44.58118 6.41776 36964 ft 505 kts 14°
2026-05-07 17:04 44.64810 6.44748 36954 ft 504 kts 14°
2026-05-07 17:05 44.71496 6.47726 36960 ft 503 kts 14°
2026-05-07 17:05 44.78173 6.50712 36958 ft 503 kts 15°
2026-05-07 17:06 44.84798 6.53672 36960 ft 502 kts 14°
2026-05-07 17:06 44.91501 6.56614 36968 ft 499 kts
2026-05-07 17:07 44.94905 6.57225 36968 ft 490 kts 355°
2026-05-07 17:07 44.98276 6.56776 36965 ft 484 kts 347°
2026-05-07 17:07 45.04881 6.55347 36968 ft 484 kts 346°
2026-05-07 17:08 45.11549 6.53877 36971 ft 485 kts 346°
2026-05-07 17:08 45.18223 6.52415 36981 ft 485 kts 347°
2026-05-07 17:09 45.24946 6.50950 36988 ft 485 kts 347°
2026-05-07 17:09 45.31629 6.49496 36992 ft 486 kts 347°
2026-05-07 17:10 45.38257 6.48053 36986 ft 485 kts 347°
2026-05-07 17:10 45.44934 6.46581 36993 ft 486 kts 347°
2026-05-07 17:11 45.51618 6.45103 36989 ft 486 kts 347°
2026-05-07 17:11 45.58288 6.43623 36993 ft 485 kts 347°
2026-05-07 17:12 45.64963 6.42146 36991 ft 485 kts 347°
2026-05-07 17:12 45.71679 6.40660 36998 ft 486 kts 347°
2026-05-07 17:13 45.78357 6.39172 36994 ft 485 kts 347°
2026-05-07 17:13 45.85016 6.37684 36996 ft 485 kts 347°
2026-05-07 17:14 45.91691 6.36181 36996 ft 484 kts 347°
2026-05-07 17:14 45.98338 6.34696 37001 ft 484 kts 347°
2026-05-07 17:15 46.05004 6.33205 37000 ft 484 kts 347°
2026-05-07 17:15 46.11648 6.31711 37013 ft 483 kts 347°
2026-05-07 17:16 46.18287 6.30207 37010 ft 483 kts 347°
2026-05-07 17:16 46.24919 6.28694 37015 ft 482 kts 347°
2026-05-07 17:17 46.31549 6.27186 37018 ft 482 kts 348°
2026-05-07 17:17 46.38201 6.25692 37025 ft 482 kts 348°
2026-05-07 17:18 46.44801 6.24195 37020 ft 482 kts 347°
2026-05-07 17:18 46.51420 6.22676 37026 ft 482 kts 347°
2026-05-07 17:19 46.58044 6.21148 37039 ft 482 kts 347°
2026-05-07 17:19 46.64665 6.19619 37056 ft 481 kts 348°
2026-05-07 17:20 46.71281 6.18114 37044 ft 481 kts 348°
2026-05-07 17:20 46.77879 6.16603 37051 ft 480 kts 348°
2026-05-07 17:21 46.81175 6.15841 36893 ft 480 kts 347°
2026-05-07 17:21 46.84434 6.15085 37040 ft 469 kts 347°
2026-05-07 17:21 46.90842 6.13593 37039 ft 464 kts 347°
2026-05-07 17:22 46.97203 6.12109 37037 ft 463 kts 347°
2026-05-07 17:22 47.03569 6.10622 37037 ft 463 kts 347°
2026-05-07 17:23 47.09930 6.09132 37034 ft 463 kts 347°
2026-05-07 17:23 47.16285 6.07635 37043 ft 463 kts 347°
2026-05-07 17:24 47.22650 6.06141 37047 ft 463 kts 347°
2026-05-07 17:24 47.29011 6.04654 37055 ft 463 kts 347°
2026-05-07 17:25 47.35406 6.03324 37054 ft 466 kts 354°
2026-05-07 17:25 47.41921 6.03408 37057 ft 468 kts 357°
2026-05-07 17:26 47.48429 6.03565 37042 ft 465 kts 357°
2026-05-07 17:26 47.54809 6.03713 37042 ft 455 kts 357°
2026-05-07 17:27 47.61143 6.03843 37041 ft 454 kts 357°
2026-05-07 17:27 47.67451 6.03972 37038 ft 454 kts 357°
2026-05-07 17:28 47.73764 6.04113 37038 ft 454 kts 357°
2026-05-07 17:28 47.80084 6.04292 37045 ft 454 kts 358°
2026-05-07 17:29 47.86405 6.04507 37048 ft 454 kts 358°
2026-05-07 17:29 47.92729 6.04712 37057 ft 454 kts 358°
2026-05-07 17:30 47.99052 6.04911 37061 ft 454 kts 358°
2026-05-07 17:30 48.05370 6.05112 37067 ft 454 kts 358°
2026-05-07 17:31 48.11680 6.05310 37069 ft 454 kts 358°
2026-05-07 17:31 48.18007 6.05506 37064 ft 454 kts 358°
2026-05-07 17:32 48.24314 6.05710 37070 ft 454 kts 358°
2026-05-07 17:32 48.29570 6.05868 37071 ft 454 kts 358°
2026-05-07 17:33 48.36955 6.06129 37069 ft 454 kts 359°
2026-05-07 17:33 48.43396 6.06448 37072 ft 454 kts 359°
2026-05-07 17:34 48.49586 6.06754 37072 ft 454 kts 359°
2026-05-07 17:34 48.55900 6.07045 37068 ft 454 kts 359°
2026-05-07 17:35 48.62223 6.07327 37071 ft 454 kts 359°
2026-05-07 17:35 48.68543 6.07628 37072 ft 454 kts 359°
2026-05-07 17:36 48.74861 6.07919 37073 ft 454 kts 359°
2026-05-07 17:36 48.81186 6.08205 37072 ft 454 kts 359°
2026-05-07 17:37 48.86426 6.08446 37070 ft 454 kts 359°
2026-05-07 17:37 48.93804 6.08795 37066 ft 453 kts 359°
2026-05-07 17:38 49.00109 6.09093 37066 ft 453 kts 359°
2026-05-07 17:38 49.06423 6.09396 37052 ft 453 kts 359°
2026-05-07 17:39 49.12728 6.09688 37037 ft 453 kts 359°
2026-05-07 17:39 49.18009 6.09936 37026 ft 454 kts 359°
2026-05-07 17:40 49.24316 6.10245 37001 ft 454 kts 359°
2026-05-07 17:40 49.30622 6.10591 36996 ft 453 kts 359°
2026-05-07 17:41 49.36929 6.10940 37021 ft 453 kts 359°
2026-05-07 17:41 49.43236 6.11268 37036 ft 453 kts 359°
2026-05-07 17:42 49.49540 6.11592 37050 ft 454 kts 359°
2026-05-07 17:42 49.55813 6.11836 37063 ft 454 kts 359°
2026-05-07 17:43 49.62189 6.12048 37063 ft 454 kts 359°
2026-05-07 17:43 49.65346 6.12159 36301 ft 460 kts 359°
2026-05-07 17:43 49.68574 6.12278 35368 ft 465 kts 359°
2026-05-07 17:44 49.71811 6.12406 34644 ft 466 kts 359°
2026-05-07 17:44 49.75047 6.12538 33967 ft 465 kts 359°
2026-05-07 17:44 49.78263 6.12667 33218 ft 462 kts 359°
2026-05-07 17:44 49.81466 6.12793 32482 ft 460 kts 359°
2026-05-07 17:45 49.84682 6.12912 31739 ft 459 kts 359°
2026-05-07 17:45 49.87861 6.13023 31081 ft 455 kts 359°
2026-05-07 17:45 49.91013 6.13079 30466 ft 451 kts 358°
2026-05-07 17:45 49.94136 6.13094 29828 ft 447 kts 358°
2026-05-07 17:46 49.97228 6.13086 29127 ft 443 kts 358°
2026-05-07 17:46 50.00266 6.13074 28478 ft 439 kts 358°
2026-05-07 17:46 50.03349 6.13072 27816 ft 435 kts 358°
2026-05-07 17:46 50.06360 6.13082 27196 ft 432 kts 358°
2026-05-07 17:47 50.09348 6.13100 26599 ft 428 kts 358°
2026-05-07 17:47 50.12323 6.13124 25997 ft 425 kts 358°
2026-05-07 17:47 50.15264 6.13149 25411 ft 421 kts 358°
2026-05-07 17:47 50.18179 6.13169 24836 ft 418 kts 358°
2026-05-07 17:48 50.21074 6.13185 24272 ft 415 kts 358°
2026-05-07 17:48 50.23947 6.13200 23721 ft 411 kts 358°
2026-05-07 17:48 50.26804 6.13253 23103 ft 409 kts
2026-05-07 17:48 50.29593 6.13998 22509 ft 407 kts 15°
2026-05-07 17:49 50.32215 6.15647 21950 ft 406 kts 27°
2026-05-07 17:49 50.34596 6.17985 21400 ft 403 kts 32°
2026-05-07 17:49 50.36929 6.20386 20869 ft 400 kts 32°
2026-05-07 17:49 50.39252 6.22782 20339 ft 397 kts 32°
2026-05-07 17:50 50.41522 6.25127 19836 ft 394 kts 32°
2026-05-07 17:50 50.43823 6.27506 19343 ft 391 kts 32°
2026-05-07 17:50 50.46084 6.29840 19043 ft 383 kts 32°
2026-05-07 17:50 50.48190 6.32432 19001 ft 371 kts 44°
2026-05-07 17:51 50.49789 6.35452 19008 ft 369 kts 56°
2026-05-07 17:51 50.50984 6.39004 19015 ft 369 kts 66°
2026-05-07 17:51 50.51991 6.42722 19015 ft 368 kts 66°
2026-05-07 17:51 50.52996 6.46416 19020 ft 368 kts 66°
2026-05-07 17:52 50.54008 6.50123 19025 ft 369 kts 66°
2026-05-07 17:52 50.55016 6.53816 19027 ft 369 kts 66°
2026-05-07 17:52 50.56030 6.57529 19028 ft 369 kts 66°
2026-05-07 17:52 50.57037 6.61225 19030 ft 369 kts 66°
2026-05-07 17:53 50.58042 6.64923 19031 ft 369 kts 66°
2026-05-07 17:53 50.59053 6.68641 19035 ft 369 kts 65°
2026-05-07 17:53 50.60415 6.72039 18629 ft 369 kts 45°
2026-05-07 17:53 50.62446 6.74263 17844 ft 374 kts 21°
2026-05-07 17:54 50.64949 6.75292 17199 ft 372 kts
2026-05-07 17:54 50.67530 6.75404 16657 ft 370 kts 359°
2026-05-07 17:54 50.70100 6.75481 16166 ft 368 kts 360°
2026-05-07 17:54 50.72633 6.75597 15879 ft 361 kts
2026-05-07 17:55 50.75100 6.75723 15752 ft 349 kts
2026-05-07 17:55 50.77494 6.75839 15629 ft 338 kts
2026-05-07 17:55 50.79819 6.75940 15488 ft 328 kts 360°
2026-05-07 17:55 50.82074 6.76031 15298 ft 321 kts 360°
2026-05-07 17:56 50.84301 6.76114 14993 ft 318 kts 359°
2026-05-07 17:56 50.86567 6.76182 14662 ft 316 kts 359°
2026-05-07 17:56 50.88707 6.76243 14345 ft 315 kts 359°
2026-05-07 17:56 50.90926 6.76305 13562 ft 328 kts 360°
2026-05-07 17:57 50.93248 6.76598 12618 ft 342 kts 12°
2026-05-07 17:57 50.94763 6.77410 11989 ft 351 kts 23°
2026-05-07 17:57 50.97746 6.79774 10700 ft 365 kts 33°
2026-05-07 17:57 50.99540 6.82665 10070 ft 366 kts 57°
2026-05-07 17:58 51.00468 6.86275 9931 ft 349 kts 79°
2026-05-07 17:58 51.00575 6.89958 9799 ft 322 kts 92°
2026-05-07 17:58 51.00467 6.93389 9656 ft 298 kts 93°
2026-05-07 17:58 51.00352 6.96544 9522 ft 277 kts 93°
2026-05-07 17:59 51.00242 6.99493 9366 ft 259 kts 93°
2026-05-07 17:59 51.00135 7.02306 8992 ft 252 kts 93°
2026-05-07 17:59 51.00026 7.05061 8521 ft 248 kts 93°
2026-05-07 17:59 50.99914 7.07800 8216 ft 247 kts 93°
2026-05-07 18:00 50.99803 7.10480 8109 ft 240 kts 93°
2026-05-07 18:00 50.99694 7.13085 7973 ft 233 kts 93°
2026-05-07 18:00 50.99586 7.15622 7846 ft 226 kts 93°
2026-05-07 18:00 50.99481 7.18082 7699 ft 221 kts 93°
2026-05-07 18:01 50.99375 7.20502 7493 ft 219 kts 94°
2026-05-07 18:01 50.99269 7.22911 7271 ft 218 kts 93°
2026-05-07 18:01 50.99162 7.25313 7120 ft 218 kts 94°
2026-05-07 18:01 50.99056 7.27705 7074 ft 217 kts 93°
2026-05-07 18:02 50.98967 7.32490 7073 ft 217 kts 73°
2026-05-07 18:02 50.99720 7.34504 7075 ft 213 kts 38°
2026-05-07 18:02 51.01030 7.35456 6897 ft 207 kts
2026-05-07 18:03 51.02402 7.35002 6647 ft 203 kts 326°
2026-05-07 18:03 51.03299 7.33349 6440 ft 200 kts 289°
2026-05-07 18:03 51.03556 7.31227 6303 ft 191 kts 276°
2026-05-07 18:03 51.03644 7.29176 6159 ft 182 kts 274°
2026-05-07 18:04 51.03708 7.27219 6020 ft 174 kts 274°
2026-05-07 18:04 51.03761 7.25343 5894 ft 165 kts 274°
2026-05-07 18:04 51.03809 7.23562 5754 ft 157 kts 274°
2026-05-07 18:04 51.03854 7.21846 5556 ft 154 kts 274°
2026-05-07 18:05 51.03895 7.20174 5367 ft 148 kts 274°
2026-05-07 18:05 51.03932 7.18530 5037 ft 150 kts 274°
2026-05-07 18:05 51.03968 7.16875 4740 ft 150 kts 273°
2026-05-07 18:05 51.04006 7.15165 4287 ft 158 kts 274°
2026-05-07 18:06 51.04044 7.13390 3850 ft 164 kts 273°
2026-05-07 18:06 51.04079 7.11557 3428 ft 166 kts 274°
2026-05-07 18:06 51.04114 7.09734 3077 ft 164 kts 273°
2026-05-07 18:06 51.04147 7.07999 3017 ft 153 kts 274°
2026-05-07 18:07 51.04177 7.06340 3024 ft 149 kts 274°
2026-05-07 18:07 51.04205 7.04693 3021 ft 148 kts 273°
2026-05-07 18:07 51.04236 7.03053 3027 ft 148 kts 273°
2026-05-07 18:07 51.04267 7.01423 3028 ft 148 kts 273°
2026-05-07 18:08 51.04289 6.99787 3023 ft 148 kts 269°
2026-05-07 18:08 51.03845 6.98348 3018 ft 151 kts 217°
2026-05-07 18:08 51.02861 6.97936 3033 ft 150 kts 174°
2026-05-07 18:08 51.01839 6.98221 3027 ft 150 kts 165°
2026-05-07 18:09 51.00830 6.98633 3022 ft 150 kts 163°
2026-05-07 18:09 50.99819 6.99066 3029 ft 150 kts 163°
2026-05-07 18:09 50.98818 6.99499 3026 ft 150 kts 163°
2026-05-07 18:09 50.97814 6.99933 3025 ft 149 kts 163°
2026-05-07 18:10 50.96811 7.00383 3025 ft 149 kts 158°
2026-05-07 18:10 50.96028 7.01367 2794 ft 148 kts 128°
2026-05-07 18:10 50.95249 7.02514 2386 ft 155 kts 137°
2026-05-07 18:10 50.94443 7.03639 2073 ft 154 kts 136°
2026-05-07 18:11 50.93655 7.04764 1830 ft 150 kts 135°
2026-05-07 18:11 50.93139 7.05509 1679 ft 147 kts 135°
2026-05-07 18:11 50.92153 7.06939 1410 ft 144 kts 135°
2026-05-07 18:11 50.91413 7.08012 1202 ft 144 kts 135°
2026-05-07 18:12 50.90680 7.09078 1009 ft 143 kts 135°
2026-05-07 18:12 50.89952 7.10135 801 ft 142 kts 136°
2026-05-07 18:12 50.89230 7.11185 609 ft 141 kts 135°
2026-05-07 18:12 50.88523 7.12213 406 ft 134 kts 135°
2026-05-07 18:13 50.87856 7.13190 241 ft 126 kts 135°
2026-05-07 18:13 50.87239 7.14106 245 ft 103 kts 137°
2026-05-07 18:13 50.86927 7.14523 259 ft 28 kts 152°
2026-05-07 18:13 50.86871 7.14494 260 ft 6 kts 266°
2026-05-07 18:14 50.86884 7.14358 259 ft 14 kts 278°
2026-05-07 18:14 50.86900 7.14196 255 ft 15 kts 279°
2026-05-07 18:14 50.86918 7.14030 253 ft 18 kts 279°
2026-05-07 18:14 50.86994 7.13819 244 ft 26 kts 315°
2026-05-07 18:15 50.87135 7.13610 238 ft 29 kts 318°
2026-05-07 18:15 50.87297 7.13384 232 ft 32 kts 319°
2026-05-07 18:15 50.87470 7.13146 232 ft 33 kts 320°
2026-05-07 18:15 50.87638 7.12894 232 ft 34 kts 312°
2026-05-07 18:16 50.87766 7.12698 232 ft 8 kts 293°
2026-05-07 18:16 50.87771 7.12610 232 ft 7 kts 266°
2026-05-07 18:16 50.87753 7.12541 233 ft 6 kts 244°
2026-05-07 18:16 50.87751 7.12491 232 ft 7 kts 281°
2026-05-07 18:17 50.87764 7.12426 233 ft 6 kts 288°
2026-05-07 18:17 50.87769 7.12403 233 ft 2 kts 288°
2026-05-07 18:17 50.87769 7.12401 232 ft 0 kts 288°